Starlink 5341

operational
NORAD ID: 55287 Int'l Des: 2023-010 Owner: SPXS Country: US Constellation: starlink
LEOCIRCULAR

About Starlink 5341

Description loading...

Live Position

Loading 3D Globe...

Upcoming Passes

Altitude History

Altitude vs Time

uPlot chart will show altitude changes over time

Two-Line Element Set

1 55287U 23010U 26102.91882559 -.00005444 00000-0 -44851-3 0 9995
2 55287 69.9981 278.2960 0002555 261.7327 98.3543 14.98358235178882
Epoch: Apr 12, 2026 • Age: 8 hours

Current Status

Altitude 588.9 km
Velocity 7.57 km/s
Sub-Earth Point -48.29°S, 35.36°W
Launch Date Jan 19, 2023
Age 3.2 years
Type internet

Technical Details

Classification Payload
Mass 305.00 kg
Dry Mass 290.00 kg
Total Mass 305.00 kg
Length 0.20 m
Diameter 2.80 m
Span 9.00 m
Shape Box + pan
Manufacturer SPXS
Bus Type Starlink
Phase Status In Orbit
Owner/State SPXS/US

Large Constellations

Loading constellations...